Torna al catalogo

STARLINK-3706

AttivoComunicazioniVLEO
NORAD 52105·PAYLOAD·🇺🇸 United States

Lanciato Mar 19, 2022 da Cape Canaveral Space Force Station

Loading…

Prossimi Passaggi (prossime 24 ore)

TLE

AggiornatoSource: CelesTrak SupGP

Epoca: Sep 14, 2026, 21:45 UTC

1 52105C 22029T   26257.90673611  .00027346  00000+0  80827-3 0  2579
2 52105  53.1568 295.5167 0001119  93.8925 172.3619 15.34364469    11

Traccia STARLINK-3706 in tempo reale con AllMySat

Download on the App Store